This is the latest recevied weather packets stored in our database for station/object LU2DKV-10. If no packets are shown the sender has not sent any weather packets the latest 10 day(s).
| Time | Temp. | Humidity | Pressure | Rain* | Wind** | Luminosity | Snow |
|---|---|---|---|---|---|---|---|
| 1788471541 | 17.22° C | 51% | 1012 hPa | - | - | 0 W/m² | - |
| 1788469717 | 17.78° C | 47% | 1011 hPa | - | - | 0 W/m² | - |
| 1788467894 | 18.33° C | 52% | 1011 hPa | - | - | 0 W/m² | - |
| 1788466071 | 18.89° C | 43% | 1011 hPa | - | - | 0 W/m² | - |
| 1788464249 | 19.44° C | 46% | 1011 hPa | - | - | 0 W/m² | - |
| 1788462426 | 18.89° C | 50% | 1011 hPa | - | - | 0 W/m² | - |
| 1788460603 | 18.89° C | 51% | 1011 hPa | - | - | 0 W/m² | - |
| 1788458780 | 18.89° C | 51% | 1011 hPa | - | - | 0 W/m² | - |
| 1788457857 | 18.89° C | 54% | 1010 hPa | - | - | 0 W/m² | - |
| 1788456008 | 18.33° C | 53% | 1010 hPa | - | - | 0 W/m² | - |
| 1788454182 | 19.44° C | 51% | 1010 hPa | - | - | 0 W/m² | - |
| 1788452358 | 18.33° C | 54% | 1011 hPa | - | - | 0 W/m² | - |
| 1788450535 | 17.78° C | 56% | 1011 hPa | - | - | 0 W/m² | - |
| 1788448712 | 17.78° C | 56% | 1011 hPa | - | - | 0 W/m² | - |
| 1788448044 | 17.22° C | 55% | 1011 hPa | - | - | 0 W/m² | - |
| 1788447734 | 17.78° C | 56% | 1011 hPa | - | - | 0 W/m² | - |
| 1788445910 | 17.22° C | 59% | 1011 hPa | - | - | 0 W/m² | - |
| 1788444093 | 17.22° C | 63% | 1011 hPa | - | - | 0 W/m² | - |
| 1788442263 | 16.67° C | 73% | 1011 hPa | - | - | 0 W/m² | - |
| 1788440439 | 13.89° C | 82% | 1011 hPa | - | - | 0 W/m² | - |
| 1788438616 | 14.44° C | 83% | 1011 hPa | - | - | 0 W/m² | - |
| 1788437947 | 14.44° C | 86% | 1011 hPa | - | - | 0 W/m² | - |
| 1788437434 | 13.89° C | 86% | 1011 hPa | - | - | 0 W/m² | - |
| 1788435609 | 13.89° C | 86% | 1011 hPa | - | - | 0 W/m² | - |
| 1788433782 | 13.89° C | 87% | 1010 hPa | - | - | 0 W/m² | - |
* Rain since midnight (hover to see other rain measurements)
** Current wind speed in m/s (hover to see current wind gust speed)